Hourly Data Report for September 22, 2017

All times are specified in Local Standard Time (LST). Add 1 hour to adjust for Daylight Saving Time where and when it is observed.

ARCTIC BAY CS
NUNAVUT

72°59'34.000" N
85°00'44.000" W
10.00 m
2400404
71592
XAT

Download Data

Hourly Data (September 2017)
Hourly Data Report for September 22, 2017
Temp Definition
°C
Dew Point Temp Definition
°C
Rel Hum Definition
%
Wind Dir Definition
10's deg

Wind Spd Definition
km/h
Visibility Definition
km
Stn Press Definition
kPa
Hmdx Definition


Wind Chill Definition


Weather Definition


TIME
00:00 -3.8 -8.3 71 6 14   101.92   -9 LegendNANA
01:00 -3.2 -6.7 77 1 8   101.90   -6 LegendNANA
02:00 -3.7 -7.1 77 7 15   101.91   -9 LegendNANA
03:00 -4.6 -8.0 77 7 20   101.88   -11 LegendNANA
04:00 -4.5 -7.6 79 6 20   101.83   -11 LegendNANA
05:00 -2.3 -6.0 76 6 9   101.82   -6 LegendNANA
06:00 -2.3 -5.9 76 7 15   101.80   -7 LegendNANA
07:00 -1.9 -5.6 76 7 13   101.77   -6 LegendNANA
08:00 -1.6 -5.4 75 7 9   101.76   -5 LegendNANA
09:00 -1.3 -5.2 75 7 10   101.77   -5 LegendNANA
10:00 -0.9 -4.7 75 7 7   101.77   -3 LegendNANA
11:00 -0.5 -4.6 74 4 1   101.74   -1 LegendNANA
12:00 0.0 -3.6 76 34 3   101.71   -1 LegendNANA
13:00 0.0 -3.2 79 32 27   101.71   -6 LegendNANA
14:00 0.2 -3.3 78 31 15   101.70     LegendNANA
15:00 -0.3 -3.4 80 30 23   101.70   -6 LegendNANA
16:00 -1.2 -4.4 79 32 11   101.70   -5 LegendNANA
17:00 -1.3 -4.7 77 31 15   101.66   -6 LegendNANA
18:00 -3.8 -6.5 82 34 8   101.67   -7 LegendNANA
19:00 -1.8 -4.6 82 32 18   101.66   -7 LegendNANA
20:00 -1.9 -5.2 78 31 11   101.63   -6 LegendNANA
21:00 -1.7 -4.7 80 29 8   101.59   -5 LegendNANA
22:00 -1.1 -4.6 77 28 11   101.56   -5 LegendNANA
23:00 -1.5 -4.3 81 34 10   101.52   -5 LegendNANA

Notes on Data Quality.

Legend

  • E = Estimated
  • M = Missing
  • NA = Not Available
  • ‡ = Partner data that is not subject to review by the National Climate Archives
Date modified: